Location: Nied?wied?
(53.3665°N, 14.8184°E)
Time: 22:19:01
(UTC+00:00)

Cosmos 2341 Rocket - Pass Details

Date: 03 March 2021
Orbit: 968 x 1005 km, 82.9° (Epoch: 12 April)

Event Time Altitude Azimuth Distance (km) Brightness Sun altitude
Rises 18:30:53 0° 185° (S) 3,698 7.0 -16.8°
Reaches altitude 10° 18:33:24 10° 184° (S) 2,748 6.3 -17.2°
Maximum altitude 18:39:42 82° 98° (E) 1,000 3.9 -18.1°
Drops below altitude 10° 18:46:00 10° 12° (NNE) 2,740 6.4 -19.0°
Sets 18:48:31 0° 12° (NNE) 3,688 7.1 -19.4°
